Regional Weather Roundup
Issued by NWS Jackson, KY

Home | Current Version | Previous Version | Text Only | Print | Product List | Glossary On
Versions: 1 2 3 4 5 6 7 8 9 10 11 12 13 14 15 16 17 18 19 20 21 22 23 24 25 26 27 28 29 30 31 32 33 34 35 36 37 38 39 40 41 42 43 44 45 46 47 48 49 50
851
ASUS43 KJKL 252110
RWRJKL

EAST KENTUCKY HOURLY WEATHER ROUNDUP
NATIONAL WEATHER SERVICE JACKSON KY
500 PM EDT SUN SEP 25 2016

NOTE: "FAIR" INDICATES FEW OR NO CLOUDS BELOW 12,000 FEET WITH
NO SIGNIFICANT WEATHER AND/OR OBSTRUCTIONS TO VISIBILITY.

* THESE REPORTS ARE NOT UNDER NWS QUALITY CONTROL AND MAY NOT
  REPORT WEATHER SUCH AS PRECIPITATION AND FOG.

KYZ079-080-083-085-087-088-110-112-115-119-120-252200
...EASTERN KENTUCKY...

CITY           SKY/WX    TMP DP  RH WIND       PRES   REMARKS
JACKSON        SUNNY     87  63  44 VRB3      30.08F
LONDON         SUNNY     88  61  40 NW6       30.06F
SOMERSET*      SUNNY     88  59  37 CALM      30.05F
MONTICELLO*    MOSUNNY   89  63  41 W9        30.05F HX  90
WILLIAMSBURG*  CLEAR     86  64  48 N3        30.06F
MIDDLESBORO*   PTSUNNY   87  65  47 N5        30.06F
HARLAN APT*    CLEAR     86  61  42 W3        30.08S
PIKE CO APT*   PTSUNNY   83  64  53 N5        30.08F
BIG SANDY APT* CLOUDY    85  67  54 N6        30.07F
MOREHEAD APT*  CLOUDY    84  63  48 CALM      30.08F
ASHLAND*       SUNNY     86  64  48 W3        30.03F
$$

KYZ035-036-041-042-044-050-067-078-099-252200
...CENTRAL KENTUCKY...

CITY           SKY/WX    TMP DP  RH WIND       PRES   REMARKS
MT STERLING*   MOSUNNY   86  66  51 SW3       30.07F
FLEMING/MASON* MOSUNNY   85  62  45 NE5       30.06F
DANVILLE*      PTSUNNY   88  63  42 SW3       30.06F
LEXINGTON      MOSUNNY   86  61  42 CALM      30.05F
FRANKFORT      MOSUNNY   89  64  43 N7        30.03F HX  90
LOUISVILLE     MOSUNNY   90  60  36 CALM      30.01F
LEBANON*         N/A     86  63  45 CALM      30.04F
GLASGOW*       SUNNY     90  60  36 CALM      30.02F
BOWLING GREEN  SUNNY     91  63  39 MISG      30.02F HX  92
$$

KYZ091>093-OHZ055-061-077-WVZ005-015-034-035-042-252200
...SOUTHERN OHIO/WEST VIRGINIA...

CITY           SKY/WX    TMP DP  RH WIND       PRES   REMARKS
COVINGTON      MOSUNNY   86  64  47 VRB3      30.05F
COLUMBUS       SUNNY     81  47  30 CALM      30.07F
DAYTON         MOSUNNY   82  62  50 S7        30.06F
WILMINGTON     SUNNY     83  63  50 NW5       30.06F
HUNTINGTON     SUNNY     87  60  40 N8        30.05F
CHARLESTON     MOSUNNY   88  57  34 NW5       30.05F
PINEVILLE*     SUNNY     77  65  64 MISG      30.14S
BECKLEY        MOSUNNY   79  59  50 NW8       30.12F
BLUEFIELD      MOSUNNY   80  56  43 NW8       30.15F
LOGAN CO APT*    N/A     82  64  54 CALM      30.08S
$$

VAZ002-007-008-TNZ017-027-036-066-071-252200
...SOUTHWEST VIRGINIA/EAST TENNESSEE...

CITY           SKY/WX    TMP DP  RH WIND       PRES   REMARKS
WISE*          PTSUNNY   82  50  32 NW5       30.16S
JONESVILLE*      N/A     90  61  37 W5        30.08F
ABINGDON*      SUNNY     85  60  41 NW6       30.10F
BRISTOL        MOSUNNY   89  59  36 W7        30.07F
MORRISTOWN*    CLEAR     90  59  35 VRB3      30.04F
SEVIERVILLE*     N/A     93  61  33 VRB3      30.02F HX  93
KNOXVILLE      MOSUNNY   92  57  30 NW9       30.01F HX  90
OAK RIDGE      SUNNY     93  59  31 W7        30.04F HX  92
CROSSVILLE     LGT RAIN  78  66  66 S7        30.10F
NASHVILLE      MOSUNNY   92  60  34 NE7       30.01F HX  91
$$

...KEY TO REMARKS...
VSB - VISIBILITY IN MILES
WCI - WIND CHILL INDEX
HX  - HEAT INDEX

$$




USA.gov is the U.S. government's official web portal to all federal, state and local government web resources and services.